sat.trackr.live / text

‹ back to catalog

STARLINK-35693

NORAD 66490 · 2025-263F

PAYLOAD ACTIVE UNKNOWN

§ Identity

Operator
Country
US
Launch date
2025-11-15
Launch site
AFETR
Launch vehicle
Mass (kg)
RCS (m²)

Purposes: comms

External: N2YO · Heavens-Above · Gunter

§ Orbital elements

Epoch: 2026-09-19T12:10:16.292064Z

Period
94.27 min
Inclination
43.0032°
Eccentricity
0.0001058
Mean motion
15.27605337 rev/d
Perigee alt
482.2 km
Apogee alt
483.7 km
Semi-major
6,861.1 km
B*
1.9071e-4
RAAN
335.8741°
Arg perigee
283.6901°
Mean anomaly
76.3833°
Rev number
4,854

§ Raw data

STARLINK-356931 66490U 25263F   26262.50713301  .00004993  00000+0  19071-3 0  99962 66490  43.0032 335.8741 0001058 283.6901  76.3833 15.27605337 48543

JSON: /api/v1/satellites/66490 · /tle

For live sub-satellite position, see the globe view (requires WebGL).

§ Visibility from observer

Set your observer location to see the next 7 days of passes ≥ 10°. The values pass through the URL so the page stays shareable.

No JS? Fill the form by hand. The geolocation button needs JavaScript.